Monroe, MI

10:13 AM EDT on September 23, 2017 (GMT -0400)
Custer

Weather History for KTTF - November, 2012

Change the Weather History Date:

Friday, November 30, 2012

  Actual Average Record
Temperature  
Mean Temperature 42 °F -  
Max Temperature 46 °F 40 °F 67 °F (1934)
Min Temperature 37 °F 28 °F 1 °F (1958)
Degree Days  
Heating Degree Days 24    
Moisture  
Dew Point 34 °F    
Average Humidity 75    
Maximum Humidity 93    
Minimum Humidity 57    
Precipitation  
Precipitation 0.00 in - - ()
Sea Level Pressure  
Sea Level Pressure 30.18 in    
Wind  
Wind Speed 2 mph (East)    
Max Wind Speed 10 mph    
Max Gust Speed -    
Visibility 9 miles    
Events      
Averages and records for this station are not official NWS values.
T = Trace of Precipitation, MM = Missing Value Source: NWS Daily Summary

Daily Weather History Graph

Daily Weather History Graph

Search for Another Location

Airport or City:

Trip Planner

Search our weather history database for the weather conditions in past years. The results will help you decide how hot, cold, wet, or windy it might be!

Date:

Astronomy

Nov. 30, 2012 Rise Set
Actual Time 7:41 AM EST 5:03 PM EST
Civil Twilight 7:10 AM EST 5:34 PM EST
Nautical Twilight 6:35 AM EST 6:09 PM EST
Astronomical Twilight 6:02 AM EST 6:42 PM EST
Moon 6:57 PM EST (11/30) 9:12 AM EST (11/30)
Length of Visible Light 10h 24m
Length of Day
9h 22m
Waning Gibbous, 96% of the Moon is Illuminated
Nov 30
Waning Gibbous
Dec 6
Last Quarter
Dec 13
New
Dec 20
First Quarter
Dec 28
Full

Hourly Weather History & Observations

Time (EST) Temp. Windchill Dew Point Humidity Pressure Visibility Wind Dir Wind Speed Gust Speed Precip Events Conditions
12:14 AM 37.4 °F - 30.2 °F 75% 30.21 in 10.0 mi Calm Calm - N/A   Overcast
12:35 AM 37.4 °F - 30.2 °F 75% 30.21 in 10.0 mi Calm Calm - N/A   Overcast
12:55 AM 37.4 °F - 30.2 °F 75% 30.21 in 10.0 mi Calm Calm - N/A   Overcast
1:15 AM 37.4 °F - 30.2 °F 75% 30.20 in 10.0 mi Calm Calm - N/A   Overcast
1:35 AM 37.4 °F - 30.2 °F 75% 30.20 in 10.0 mi Calm Calm - N/A   Overcast
1:55 AM 37.4 °F - 30.2 °F 75% 30.19 in 10.0 mi Calm Calm - N/A   Overcast
2:15 AM 39.2 °F - 32.0 °F 75% 30.19 in 10.0 mi Calm Calm - N/A   Overcast
2:35 AM 39.2 °F - 33.8 °F 81% 30.19 in 10.0 mi Calm Calm - N/A   Overcast
2:55 AM 39.2 °F - 32.0 °F 75% 30.19 in 10.0 mi Calm Calm - N/A   Overcast
3:15 AM 39.2 °F - 32.0 °F 75% 30.19 in 10.0 mi Calm Calm - N/A   Overcast
3:36 AM 41.0 °F - 32.0 °F 70% 30.18 in 10.0 mi Calm Calm - N/A   Overcast
3:56 AM 41.0 °F - 33.8 °F 76% 30.19 in 10.0 mi Calm Calm - N/A   Overcast
4:16 AM 41.0 °F - 33.8 °F 76% 30.18 in 10.0 mi Calm Calm - N/A   Overcast
4:31 AM 41.0 °F - 33.8 °F 76% 30.18 in 7.0 mi Calm Calm - N/A   Overcast
4:51 AM 41.0 °F 39.0 °F 33.8 °F 76% 30.18 in 10.0 mi SE 3.5 mph - N/A   Overcast
5:11 AM 41.0 °F 39.0 °F 33.8 °F 76% 30.17 in 10.0 mi ESE 3.5 mph - N/A   Scattered Clouds
5:31 AM 41.0 °F - 32.0 °F 70% 30.17 in 10.0 mi Calm Calm - N/A   Scattered Clouds
5:51 AM 41.0 °F - 33.8 °F 76% 30.17 in 10.0 mi Calm Calm - N/A   Mostly Cloudy
6:11 AM 39.2 °F - 33.8 °F 81% 30.17 in 10.0 mi Calm Calm - N/A   Overcast
6:31 AM 41.0 °F 39.0 °F 33.8 °F 76% 30.17 in 7.0 mi ESE 3.5 mph - N/A   Overcast
6:51 AM 41.0 °F 38.0 °F 35.6 °F 81% 30.17 in 7.0 mi ESE 4.6 mph - N/A   Overcast
7:12 AM 41.0 °F - 35.6 °F 81% 30.17 in 7.0 mi Calm Calm - N/A   Overcast
7:32 AM 41.0 °F - 35.6 °F 81% 30.18 in 7.0 mi Calm Calm - N/A   Overcast
7:52 AM 39.2 °F - 35.6 °F 87% 30.19 in 7.0 mi Calm Calm - N/A   Overcast
8:12 AM 39.2 °F - 35.6 °F 87% 30.19 in 7.0 mi Calm Calm - N/A   Overcast
8:32 AM 39.2 °F - 35.6 °F 87% 30.19 in 7.0 mi Calm Calm - N/A   Overcast
8:52 AM 42.8 °F 39.3 °F 33.8 °F 70% 30.18 in 10.0 mi SE 5.8 mph - N/A   Scattered Clouds
9:12 AM 42.8 °F 40.1 °F 33.8 °F 70% 30.18 in 10.0 mi SE 4.6 mph - N/A   Clear
9:32 AM 44.6 °F 42.2 °F 33.8 °F 66% 30.18 in 10.0 mi ESE 4.6 mph - N/A   Scattered Clouds
9:52 AM 44.6 °F 42.2 °F 33.8 °F 66% 30.18 in 10.0 mi SE 4.6 mph - N/A   Scattered Clouds
10:13 AM 44.6 °F 40.7 °F 33.8 °F 66% 30.18 in 10.0 mi SE 6.9 mph - N/A   Scattered Clouds
10:33 AM 44.6 °F 43.1 °F 35.6 °F 71% 30.18 in 10.0 mi SSE 3.5 mph - N/A   Scattered Clouds
10:53 AM 44.6 °F 40.2 °F 33.8 °F 66% 30.18 in 10.0 mi SSE 8.1 mph - N/A   Scattered Clouds
11:13 AM 44.6 °F 42.2 °F 33.8 °F 66% 30.18 in 10.0 mi SSE 4.6 mph - N/A   Clear
11:33 AM 44.6 °F 42.2 °F 33.8 °F 66% 30.17 in 10.0 mi SSE 4.6 mph - N/A   Clear
11:53 AM 44.6 °F 43.1 °F 33.8 °F 66% 30.16 in 10.0 mi SSE 3.5 mph - N/A   Clear
12:13 PM 44.6 °F 43.1 °F 33.8 °F 66% 30.15 in 10.0 mi SSE 3.5 mph - N/A   Clear
12:33 PM 44.6 °F 42.2 °F 33.8 °F 66% 30.15 in 10.0 mi SE 4.6 mph - N/A   Clear
12:53 PM 46.4 °F 43.5 °F 33.8 °F 62% 30.13 in 10.0 mi SE 5.8 mph - N/A   Clear
1:14 PM 46.4 °F 44.3 °F 33.8 °F 62% 30.13 in 10.0 mi SSE 4.6 mph - N/A   Clear
1:34 PM 44.6 °F 42.2 °F 33.8 °F 66% 30.13 in 10.0 mi SSE 4.6 mph - N/A   Clear
1:54 PM 46.4 °F 45.2 °F 33.8 °F 62% 30.12 in 10.0 mi SE 3.5 mph - N/A   Clear
2:14 PM 46.4 °F - 33.8 °F 62% 30.13 in 10.0 mi Calm Calm - N/A   Clear
2:34 PM 46.4 °F - 32.0 °F 57% 30.13 in 10.0 mi Calm Calm - N/A   Clear
2:54 PM 46.4 °F 45.2 °F 33.8 °F 62% 30.13 in 10.0 mi ENE 3.5 mph - N/A   Clear
3:14 PM 44.6 °F 42.2 °F 33.8 °F 66% 30.13 in 10.0 mi ENE 4.6 mph - N/A   Clear
3:34 PM 44.6 °F - 33.8 °F 66% 30.13 in 10.0 mi Calm Calm - N/A   Scattered Clouds
3:54 PM 44.6 °F 41.4 °F 33.8 °F 66% 30.14 in 10.0 mi ENE 5.8 mph - N/A   Scattered Clouds
4:14 PM 44.6 °F 40.2 °F 33.8 °F 66% 30.14 in 10.0 mi ENE 8.1 mph - N/A   Clear
4:35 PM 44.6 °F 43.1 °F 33.8 °F 66% 30.15 in 10.0 mi East 3.5 mph - N/A   Scattered Clouds
4:55 PM 42.8 °F 40.1 °F 33.8 °F 70% 30.16 in 10.0 mi East 4.6 mph - N/A   Mostly Cloudy
5:15 PM 42.8 °F 39.3 °F 33.8 °F 70% 30.17 in 10.0 mi ENE 5.8 mph - N/A   Mostly Cloudy
5:35 PM 42.8 °F 39.3 °F 35.6 °F 76% 30.17 in 10.0 mi East 5.8 mph - N/A   Mostly Cloudy
5:55 PM 42.8 °F 38.0 °F 35.6 °F 76% 30.17 in 10.0 mi East 8.1 mph - N/A   Mostly Cloudy
6:15 PM 42.8 °F 37.5 °F 35.6 °F 76% 30.18 in 10.0 mi East 9.2 mph - N/A   Clear
6:35 PM 42.8 °F 38.6 °F 35.6 °F 76% 30.19 in 10.0 mi ENE 6.9 mph - N/A   Mostly Cloudy
6:55 PM 42.8 °F 38.6 °F 37.4 °F 81% 30.20 in 10.0 mi ENE 6.9 mph - N/A   Overcast
7:15 PM 42.8 °F 38.0 °F 37.4 °F 81% 30.21 in 7.0 mi ENE 8.1 mph - N/A   Overcast
7:36 PM 41.0 °F 35.8 °F 37.4 °F 87% 30.21 in 7.0 mi ENE 8.1 mph - N/A   Overcast
7:56 PM 41.0 °F 34.7 °F 37.4 °F 87% 30.22 in 7.0 mi ENE 10.4 mph - N/A   Overcast
8:16 PM 41.0 °F 38.0 °F 37.4 °F 87% 30.21 in 7.0 mi ENE 4.6 mph - N/A   Overcast
8:36 PM 39.2 °F 37.0 °F 37.4 °F 93% 30.21 in 7.0 mi NE 3.5 mph - N/A   Overcast
8:51 PM 39.2 °F 33.6 °F 37.4 °F 93% 30.22 in 7.0 mi ENE 8.1 mph - N/A   Overcast
9:11 PM 39.2 °F 34.2 °F 37.4 °F 93% 30.22 in 7.0 mi ENE 6.9 mph - N/A   Overcast
9:31 PM 39.2 °F 35.0 °F 37.4 °F 93% 30.23 in 7.0 mi NE 5.8 mph - N/A   Overcast
10:11 PM 39.2 °F 34.2 °F 35.6 °F 87% 30.22 in 7.0 mi ENE 6.9 mph - N/A   Overcast
10:31 PM 37.4 °F 31.4 °F 35.6 °F 93% 30.22 in 7.0 mi ENE 8.1 mph - N/A   Overcast
11:12 PM 37.4 °F 32.1 °F 35.6 °F 93% 30.21 in 7.0 mi ENE 6.9 mph - N/A   Overcast
11:32 PM 37.4 °F 32.8 °F 35.6 °F 93% 30.21 in 7.0 mi ENE 5.8 mph - N/A   Overcast